Regional Weather Roundup
Issued by NWS Sioux Falls, SD

Home | Current Version | Previous Version | Text Only | Print | Product List | Glossary Off
Versions: 1 2 3 4 5 6 7 8 9 10 11 12 13 14 15 16 17 18 19 20 21 22 23 24 25 26 27 28 29 30 31 32 33 34 35 36 37 38 39 40 41 42 43 44 45 46 47 48 49 50

000
ASUS43 KFSD 311902
RWRFSD

WEATHER ROUNDUP FOR SE SOUTH DAKOTA/SW MINNESOTA/NW IOWA
NATIONAL WEATHER SERVICE SIOUX FALLS SD
100 PM CST SAT JAN 31 2015

NOTE: "FAIR" INDICATES FEW OR NO CLOUDS BELOW 12,000 FEET WITH NO
SIGNIFICANT WEATHER AND OR OBSTRUCTIONS TO VISIBILITY.


SDZ038>040-050-052>070-312000-
SOUTHEAST SOUTH DAKOTA

CITY           SKY/WX    TMP DP  RH WIND       PRES   REMARKS
CHAMBERLAIN    NOT AVBL
HURON          CLOUDY    22  17  81 NE17      30.16F WCI   8
MADISON        CLOUDY    21  21 100 NE18G25   30.10F FOG     WCI   6
MITCHELL       CLOUDY    25  22  88 NE16      30.12F FOG     WCI  12
SIOUX FALLS    CLOUDY    26  24  92 NE16      30.10F WCI  14
WINNER         FRZ RAIN  26  24  92 NE14      30.05F VSB<1/4 WCI  14
YANKTON        CLOUDY    28  27  93 NE14      30.07F WCI  17
$$

MNZ071-072-080-081-089-090-097-098-312000-
SOUTHWEST MINNESOTA

CITY           SKY/WX    TMP DP  RH WIND       PRES   REMARKS
FAIRMONT       CLOUDY    27  25  93 NE9       30.12F VSB 1/4 WCI  17
JACKSON        CLOUDY    28  27  93 NE15      30.12F FOG     WCI  17
LUVERNE        CLOUDY    28  27  93 NE14      30.11S FOG     WCI  17
MARSHALL       CLOUDY    25  19  80 NE12      30.18F WCI  14
MONTEVIDEO     CLOUDY    25  23  93 E8        30.21F WCI  16
PIPESTONE      FOG       25  23  93 NE10      30.10F VSB 3/4 WCI  15
REDWOOD FALLS  CLOUDY    27  23  85 N9        30.18F WCI  18
TRACY          CLOUDY    26  25  97 NE12      30.15F FOG     WCI  15
WINDOM         CLOUDY    27  25  93 N14       30.13F FOG     WCI  15
WORTHINGTON    CLOUDY    27  23  86 NE14      30.12S WCI  15
$$

IAZ001>003-012>014-020>022-031-032-NEZ013-014-SDZ071-312000-
NORTHWEST IOWA

CITY           SKY/WX    TMP DP  RH WIND       PRES   REMARKS
ESTHERVILLE    CLOUDY    26  25  96 NE12      30.12  FOG     WCI  16
SIOUX CITY     LGT RAIN  38  36  92 S6        30.07F FOG
SPENCER        CLOUDY    29  25  85 NE12      30.12F FOG     WCI  19
$$

ABBREVIATIONS USED IN REMARKS
   TC - TEMPERATURE IN CELSIUS
  WCI - WIND CHILL INDEX
   HX - HEAT INDEX
  VSB - VISIBILITY




USA.gov is the U.S. government's official web portal to all federal, state and local government web resources and services.